World > North America > United States > Oregon

Silver Lake, Oregon Regional Weather

Lat: 43.13N, Lon: 121.05W
Wx Zone: ORZ031Web Search

Ads allow us to feed your daily addiction for the world's greatest weather information. We're determined to offer quality sponsors, in the least annoying way possible.

Feedback


°F Click to change Silver Lake hourly weather to Imperial units.Click to change Silver Lake hourly weather to Metric units. °C
Silver Lake Weather Map
UTC Time: 5/14/2021, 17:30
Your Time:

Silver Lake, OR Regional Weather

Expires:202105141800;;108269
ASUS46 KPQR 141710
RWROR 

OREGON REGIONAL WEATHER ROUNDUP
NATIONAL WEATHER SERVICE PORTLAND OR
1000 AM PDT FRI MAY 14 2021

NOTE: "FAIR" INDICATES FEW OR NO CLOUDS BELOW 12,000 FEET WITH
NO SIGNIFICANT WEATHER AND/OR OBSTRUCTIONS TO VISIBILITY.


ORZ029>031-041-044-049-050-061>064-502-503-505>511-141800-
EASTERN OREGON

  
CITY           SKY/WX    TMP DP  RH WIND       PRES   REMARKS
MADRAS         NOT AVBL                                               
REDMOND        FAIR      67  39  35 VRB5      30.07S                  
BEND           FAIR      66  36  32 NW9       30.09S                  
PRINEVILLE     FAIR      66  36  32 CALM      30.07F                  
KLAMATH FALLS  FAIR      64  42  44 W5        30.05F                  
LAKEVIEW       FAIR      63  34  33 N7        30.08F                  
HERMISTON      FAIR      72  42  34 NW6       30.04S                  
PENDLETON      FAIR      70  41  34 W3        30.04F                  
JOHN DAY       FAIR      60  38  43 CALM      30.07F                  
MEACHAM        NOT AVBL                                               
LA GRANDE      FAIR      67  38  34 N14       30.05F                  
BAKER CITY     FAIR      62  40  44 W6        30.05F                  
BURNS          FAIR      64  29  26 CALM      30.06S                  
ROME             N/A     68  33  27 N10G18    30.01F                  
ONTARIO        PTSUNNY   73  39  29 N12       30.00S                  
$$


OTHER REGIONAL REPORTS
  
CITY           SKY/WX    TMP DP  RH WIND       PRES   REMARKS
SEATTLE        FAIR      61  49  64 VRB3      30.15F                  
SPOKANE        FAIR      65  38  36 NE7       30.08S                  
VANCOUVER BC   NOT AVBL                                               
PRINCE GEORGE  NOT AVBL                                               
DAWSON CREEK   NOT AVBL                                               
WHITEHORSE     NOT AVBL                                               
BOISE          FAIR      62  40  44 W5        30.00R                  
REDDING        FAIR      76  43  30 CALM      29.88F                  
SAN FRANCISCO  CLOUDY    55  47  74 SW13      30.00S                  

$$

  

SKY/WX - Weather  TMP - Temperature  DP - Dew Point  RH - Relative Humidity
WIND - Wind Direction/Speed PRES - Barometric Pressure VSB - Visibility
WCI - Wind Chill Index E13G22 Wind - East Wind 13 mph/Gusts of 22 mph